[[{"header":{"parameterUnit":"m.s-1","parameterCategory":2,"la1":30.2991,"la2":30.254,"lo1":-89.0895,"lo2":-89.0444,"dy":0.0017,"dx":0.0017,"nx":28,"ny":28,"refTime":"2024-05-08T03:00:00:Z","depth":"0","parameterNumber":2,"parameterNumberName":"U-component_of_CURRENTS"},"data":[0,0,0,0,0,0,0,0,0,0,0,0,0,0,0,0,0,0,0,0,0,0,0,0,0,0,0,0,0,0,0,0,0,0,0,0,0,0,0,0,0,0,0,0,0,0,0,0,0,0,0,0,0,0,0,0,0,0,0.3434,0.3435,0,0.3459,0.3459,0.3459,0.3446,0.3445,0.3445,0.3444,0.3444,0.3444,0.3444,0,0,0,0,0,0,0,0,0,0,0,0,0,0.3381,0.3381,0.3434,0.3435,0.3435,0.3459,0.3459,0.3459,0.3446,0.3445,0.3445,0.3444,0.3444,0.3444,0.3445,0,0,0,0,0,0,0,0,0,0,0,0,0,0.3402,0.3382,0.3434,0.3433,0.3433,0.3459,0.3459,0.3459,0.3446,0.3445,0.3445,0.3444,0.3443,0.3444,0.3445,0.3463,0,0,0.3447,0.3447,0,0,0,0,0,0,0,0,0.3401,0.3404,0.3433,0.3433,0.3434,0.3451,0.344,0.346,0.3446,0.3439,0.3444,0.3444,0.3446,0.3446,0.345,0.3463,0.3463,0.3447,0.3447,0.3447,0.3447,0,0,0,0,0,0,0,0.34,0.3403,0.3442,0.3433,0.3434,0.3433,0.3435,0.3444,0.3444,0.344,0.3439,0.3446,0.3445,0.3449,0.3449,0.3463,0.3447,0.3447,0.3448,0.3448,0.3534,0.3536,0,0,0,0,0,0,0.3402,0.3402,0.3441,0.3443,0.3418,0.3435,0.3437,0.3444,0.3444,0.3445,0.3446,0.3445,0.3448,0.3449,0.3449,0.3498,0.3447,0.3448,0.3448,0.3532,0.3535,0.3537,0,0,0,0,0,0,0.34,0.3405,0.344,0.3424,0.3429,0.3437,0.3445,0.3445,0.3456,0.345,0.3449,0.3458,0.3448,0.3448,0.3471,0.3496,0.3448,0.3449,0.353,0.3533,0.3536,0.3577,0,0,0,0,0,0,0.3399,0.3404,0.3411,0.3425,0.343,0.3464,0.3446,0.3446,0.3462,0.346,0.346,0.3458,0.3447,0.347,0.3472,0.3496,0.3449,0.3528,0.3531,0.3535,0.3573,0.3581,0.3588,0,0,0,0,0,0.3397,0.3408,0.3411,0.3416,0.3438,0.3465,0.3468,0.3469,0.3463,0.3474,0.3477,0.3459,0.3494,0.3472,0.3473,0.3499,0.3526,0.353,0.3534,0.357,0.3579,0.3587,0,0,0,0,0,0,0.3386,0.3408,0.3411,0.3428,0.345,0.3464,0.3475,0.3479,0.349,0.3489,0.3479,0.3479,0.3511,0.3505,0.3481,0.3538,0.3509,0.3514,0.3536,0.3545,0.3552,0.3571,0.345,0,0,0,0,0,0.3388,0.3403,0.3426,0.3441,0.3453,0.3467,0.3478,0.3483,0.3496,0.35,0.35,0.3509,0.3531,0.3536,0.355,0.3576,0.3591,0.3597,0.3604,0.361,0.3629,0.3672,0.3684,0.3551,0.3551,0.3551,0,0,0.3385,0.3403,0.3409,0.344,0.3455,0.3483,0.3472,0.3496,0.352,0.35,0.3527,0.3535,0.3546,0.3578,0.3592,0.3573,0.3658,0.3615,0.362,0.3637,0.3678,0.3691,0.3702,0.3554,0.3553,0.3553,0,0,0.3393,0.3409,0.3424,0.345,0.3482,0.3498,0.351,0.3532,0.3541,0.357,0.3571,0.3601,0.3613,0.3637,0.3648,0.3708,0.3697,0.3707,0.3752,0.3792,0.3804,0.3813,0.3851,0.3864,0.3705,0.3705,0.3705,0,0.3388,0.3409,0.3433,0.3464,0.3481,0.3509,0.353,0.3559,0.3585,0.3601,0.3584,0.3644,0.3648,0.3709,0.373,0.3725,0.3741,0.3712,0.3801,0.3811,0.382,0.3857,0.387,0.3708,0.3707,0.3707,0.3707,0,0.3409,0.343,0.3446,0.3491,0.352,0.3543,0.3587,0.3619,0.363,0.3652,0.3706,0.3722,0.3757,0.3767,0.3764,0.3841,0.383,0.3806,0.3774,0.3836,0.3871,0.3884,0.3711,0.371,0.371,0.3709,0,0,0.3381,0.3442,0.3448,0.3466,0.353,0.3553,0.3613,0.3663,0.3708,0.3737,0.3788,0.3835,0.3846,0.3864,0.3871,0.3911,0.399,0.3888,0.3889,0.3919,0.4082,0.4057,0.4069,0.3973,0.3976,0.3978,0.4079,0,0.3382,0.3425,0.346,0.3504,0.3528,0.358,0.3634,0.3693,0.374,0.3804,0.3845,0.3898,0.3883,0.3905,0.3946,0.3989,0.4028,0.3965,0.4025,0.4028,0.3991,0.4084,0.3996,0.4078,0.4093,0.4095,0.4096,0,0.3384,0.3413,0.3444,0.3505,0.352,0.3558,0.3646,0.37,0.3811,0.3846,0.3917,0.3955,0.4045,0.4007,0.4114,0.4072,0.4087,0.4108,0.4111,0.4086,0.4028,0.402,0.4102,0.4039,0.4117,0.4115,0.4114,0,0.334,0.3399,0.3414,0.3437,0.3519,0.3546,0.3599,0.3708,0.3772,0.3888,0.395,0.4038,0.4104,0.4144,0.4198,0.4159,0.4307,0.4249,0.4242,0.4239,0.4178,0.4166,0.4202,0.4319,0.4319,0.4318,0.4318,0,0.3321,0.3333,0.3395,0.3408,0.3445,0.3519,0.3585,0.3659,0.3789,0.387,0.397,0.4057,0.4143,0.4234,0.4244,0.4307,0.4343,0.4285,0.4277,0.419,0.4178,0.413,0.4095,0.4322,0.4321,0.432,0.432,0,0.3266,0.3304,0.3327,0.3399,0.3422,0.3454,0.3571,0.3626,0.3765,0.3883,0.3927,0.4107,0.4228,0.4309,0.4401,0.438,0.4324,0.4424,0.4321,0.43,0.4203,0.4173,0.401,0.3898,0.4433,0.4434,0.4434,0,0.3236,0.3242,0.3303,0.3314,0.334,0.3403,0.3444,0.3588,0.366,0.3899,0.3947,0.4141,0.4245,0.4406,0.4425,0.447,0.4337,0.4392,0.4299,0.4223,0.4183,0.3964,0.3864,0.4237,0.4235,0.4234,0.4233,0,0.3177,0.3197,0.3215,0.3244,0.3273,0.3311,0.3391,0.3449,0.3623,0.3752,0.3918,0.4038,0.4246,0.4294,0.4394,0.4392,0.4213,0.4367,0.4318,0.4076,0.381,0.3689,0.4145,0.4223,0.4224,0.4224,0.4225,0.4225,0.3121,0.3118,0.3143,0.3155,0.318,0.3191,0.3191,0.3304,0.3411,0.3571,0.3774,0.3925,0.4151,0.4294,0.4265,0.4225,0.4126,0.4136,0.4121,0.3916,0.3752,0.419,0.4232,0.4233,0.4234,0.4235,0.4236,0,0.3042,0.3044,0.3052,0.3049,0.3018,0.3077,0.3122,0.3111,0.3173,0.3397,0.3543,0.381,0.3917,0.4056,0.4145,0.4033,0.3788,0.3931,0.3627,0.3553,0.4003,0.3943,0.3887,0.3887,0.3887,0.3887,0.3887,0.3887,0.3,0.2967,0.2965,0.288,0.2871,0.2797,0.2788,0.2811,0.2929,0.3083,0.3261,0.3447,0.381,0.4014,0.3985,0.3886,0.3613,0.3439,0.3387,0.3774,0.379,0.3806,0.3742,0.3645,0.3645,0.279,0.2784,0.278]},{"header":{"parameterUnit":"m.s-1","parameterCategory":2,"la1":30.2991,"la2":30.254,"lo1":-89.0895,"lo2":-89.0444,"dy":0.0017,"dx":0.0017,"nx":28,"ny":28,"refTime":"2024-05-08T03:00:00:Z","depth":"0","parameterNumber":3,"parameterNumberName":"V-component_of_CURRENTS"},"data":[0,0,0,0,0,0,0,0,0,0,0,0,0,0,0,0,0,0,0,0,0,0,0,0,0,0,0,0,0,0,0,0,0,0,0,0,0,0,0,0,0,0,0,0,0,0,0,0,0,0,0,0,0,0,0,0,0,0,0.0306,0.0306,0,0.0242,0.0241,0.024,0.0194,0.0194,0.0194,0.0194,0.0088,0.0086,0.0083,0,0,0,0,0,0,0,0,0,0,0,0,0,0.0318,0.0319,0.0306,0.0306,0.0305,0.0242,0.0241,0.024,0.0195,0.0194,0.0194,0.0194,0.0089,0.0086,0.0083,0,0,0,0,0,0,0,0,0,0,0,0,0,0.0289,0.0319,0.0307,0.0276,0.0272,0.0242,0.0241,0.024,0.0195,0.0194,0.0194,0.0193,0.009,0.0086,0.0083,0.0067,0,0,0.0071,0.0069,0,0,0,0,0,0,0,0,0.029,0.0288,0.0281,0.0278,0.0274,0.0227,0.0207,0.018,0.0195,0.0223,0.0194,0.0193,0.0132,0.0125,0.0112,0.0062,0.0057,0.007,0.0068,0.0066,0.0065,0,0,0,0,0,0,0,0.0293,0.029,0.028,0.028,0.0276,0.024,0.0236,0.0201,0.0179,0.022,0.0217,0.0212,0.0129,0.0116,0.0109,0.0056,0.0071,0.0067,0.0065,0.0063,0.0001,0.0002,0,0,0,0,0,0,0.0307,0.0293,0.0282,0.0278,0.0283,0.0241,0.0236,0.0241,0.018,0.0171,0.0212,0.021,0.0123,0.0114,0.0105,0.0105,0.0067,0.0063,0.0061,0.0001,0.0001,0.0002,0,0,0,0,0,0,0.0308,0.0307,0.0284,0.0284,0.0279,0.0242,0.0248,0.024,0.0231,0.0174,0.0164,0.0212,0.0122,0.0111,0.0088,0.0099,0.0061,0.0058,-0.0,0.0001,0.0002,0.0089,0,0,0,0,0,0,0.0309,0.0308,0.0314,0.0285,0.0279,0.028,0.0248,0.0239,0.0229,0.0226,0.017,0.016,0.0121,0.0094,0.0084,0.0093,0.0055,-0.0001,0.0,0.0001,0.0085,0.0093,0.0099,0,0,0,0,0,0.031,0.0329,0.0316,0.0314,0.0291,0.028,0.0274,0.0245,0.023,0.0234,0.0199,0.0162,0.0094,0.0092,0.008,0.0088,-0.0002,-0.0,0.0001,0.0082,0.0091,0.0099,0,0,0,0,0,0,0.0336,0.0325,0.031,0.0324,0.0307,0.0273,0.0273,0.0253,0.0228,0.0224,0.017,0.0158,0.0141,0.0104,0.0103,0.0074,0.004,0.0039,0.0106,0.0114,0.0121,0.0143,0.0051,0,0,0,0,0,0.0346,0.0357,0.0335,0.0345,0.0341,0.0308,0.0298,0.0281,0.0255,0.0244,0.0206,0.0167,0.0137,0.0119,0.0086,0.007,0.0034,0.0067,0.0075,0.0081,0.0091,0.0047,0.0051,0.0007,0.0007,0.0007,0,0,0.0356,0.0352,0.0357,0.0351,0.0334,0.0343,0.0302,0.0298,0.0305,0.0236,0.0233,0.019,0.0139,0.0125,0.0113,0.0095,0.0075,0.0083,0.0089,0.0095,0.0049,0.0054,0.0057,0.0008,0.0008,0.0008,0,0,0.039,0.0383,0.0404,0.04,0.0386,0.037,0.0375,0.0348,0.0336,0.0325,0.028,0.025,0.0201,0.0172,0.0149,0.0175,0.0115,0.016,0.021,0.0168,0.0171,0.0174,0.014,0.0139,0.0162,0.0162,0.0162,0,0.04,0.0431,0.0407,0.0427,0.0433,0.0391,0.0416,0.0401,0.037,0.0366,0.0337,0.0274,0.0226,0.0214,0.0219,0.0191,0.0158,0.0184,0.0178,0.018,0.0181,0.0145,0.0142,0.0166,0.0166,0.0165,0.0165,0,0.0454,0.0475,0.0489,0.0505,0.0504,0.0522,0.05,0.0502,0.0477,0.0451,0.043,0.0365,0.0329,0.0305,0.0267,0.0255,0.0227,0.0194,0.016,0.0191,0.0151,0.0146,0.0172,0.0171,0.017,0.0168,0,0,0.0487,0.0522,0.0527,0.0554,0.0552,0.0562,0.058,0.0583,0.0607,0.055,0.0565,0.0494,0.0449,0.0421,0.0365,0.0322,0.0295,0.0265,0.0261,0.0238,0.0206,0.0187,0.018,0.0257,0.0256,0.0256,0.0177,0,0.0538,0.0604,0.06,0.0659,0.0694,0.0674,0.07,0.0692,0.0672,0.0675,0.0597,0.0579,0.0496,0.0481,0.0426,0.0333,0.0287,0.0319,0.0174,0.017,0.0154,0.0175,0.0213,0.0146,0.0173,0.0172,0.0171,0,0.0594,0.0636,0.0705,0.0759,0.0771,0.0796,0.0837,0.0857,0.0841,0.0823,0.078,0.0711,0.0647,0.057,0.0422,0.0446,0.0336,0.0253,0.0247,0.0197,0.0143,0.0116,0.0136,-0.0022,0.0164,0.0165,0.0165,0,0.0646,0.0709,0.0772,0.079,0.0839,0.0868,0.0895,0.09,0.0941,0.0917,0.0936,0.0826,0.0796,0.064,0.0458,0.0438,0.0294,0.0243,0.0123,0.012,0.0109,0.0106,-0.0036,0.0138,0.0138,0.0138,0.0138,0,0.071,0.0761,0.0806,0.0845,0.0938,0.0935,0.1025,0.1037,0.1066,0.1135,0.1019,0.1044,0.0811,0.0695,0.0506,0.0313,0.0327,0.0141,0.0101,0.014,0.0141,-0.0034,-0.0163,0.0135,0.0136,0.0136,0.0137,0,0.0757,0.0785,0.0869,0.0935,0.0968,0.1033,0.1132,0.1197,0.121,0.1299,0.1298,0.1208,0.1063,0.0823,0.0579,0.0398,0.0088,0.012,0.0186,0.0155,-0.0109,-0.0234,-0.0447,-0.0553,-0.0023,-0.0024,-0.0024,0,0.0789,0.0836,0.0941,0.1003,0.1038,0.1139,0.122,0.127,0.135,0.1413,0.1468,0.1354,0.1317,0.0951,0.0596,0.0269,0.0068,0.0075,0.0036,-0.0111,-0.0281,-0.036,-0.0439,0.0053,0.0053,0.0053,0.0053,0,0.0851,0.0882,0.0954,0.109,0.1184,0.1308,0.1426,0.1517,0.1594,0.1674,0.1754,0.1729,0.1398,0.1097,0.0637,0.0384,-0.0052,0.0063,-0.0108,-0.0247,-0.0325,-0.0447,0.0092,0.0053,0.0053,0.0053,0.0053,0.0053,0.0894,0.0956,0.1053,0.1183,0.1302,0.1461,0.158,0.1713,0.1872,0.203,0.1985,0.203,0.1591,0.0977,0.0592,-0.0028,-0.0077,-0.0195,-0.0337,-0.0404,-0.0502,0.0041,-0.0034,-0.0034,-0.0035,-0.0035,-0.0035,0,0.095,0.1024,0.1142,0.13,0.1439,0.1498,0.1709,0.1842,0.2046,0.2226,0.2313,0.219,0.1605,0.1005,0.0158,-0.0304,-0.0495,-0.0567,-0.0668,-0.0736,-0.0253,-0.0242,-0.0341,-0.0341,-0.034,-0.034,-0.034,-0.034,0.0981,0.1095,0.1158,0.1387,0.1503,0.1708,0.1837,0.2045,0.2229,0.2491,0.2606,0.2658,0.2269,0.0655,-0.0379,-0.0665,-0.1006,-0.1086,-0.1277,-0.0932,-0.0907,-0.0883,-0.0899,-0.1134,-0.1136,-0.1659,-0.1664,-0.1669]}],[{"header":{"parameterUnit":"m.s-1","parameterCategory":2,"la1":30.2991,"la2":30.254,"lo1":-89.0895,"lo2":-89.0444,"dy":0.0017,"dx":0.0017,"nx":28,"ny":28,"refTime":"2024-05-08T03:00:00:Z","depth":"2","parameterNumber":2,"parameterNumberName":"U-component_of_CURRENTS"},"data":[0,0,0,0,0,0,0,0,0,0,0,0,0,0,0,0,0,0,0,0,0,0,0,0,0,0,0,0,0,0,0,0,0,0,0,0,0,0,0,0,0,0,0,0,0,0,0,0,0,0,0,0,0,0,0,0,0,0,0.331,0.331,0,0.3336,0.3336,0.3337,0.3331,0.333,0.333,0.333,0.3336,0.3336,0.3337,0,0,0,0,0,0,0,0,0,0,0,0,0,0.3257,0.3258,0.3309,0.331,0.3311,0.3336,0.3336,0.3337,0.3331,0.333,0.333,0.333,0.3336,0.3336,0.3337,0,0,0,0,0,0,0,0,0,0,0,0,0,0.3279,0.3258,0.3309,0.3312,0.3313,0.3336,0.3336,0.3337,0.3331,0.333,0.333,0.333,0.3335,0.3336,0.3337,0.335,0,0,0.3339,0.3339,0,0,0,0,0,0,0,0,0.3278,0.3281,0.3311,0.3312,0.3313,0.3332,0.332,0.3341,0.3331,0.3322,0.333,0.3329,0.3334,0.3335,0.3338,0.335,0.335,0.3339,0.3339,0.3339,0.334,0,0,0,0,0,0,0,0.3276,0.328,0.3318,0.3312,0.3313,0.3314,0.3316,0.3324,0.3328,0.3323,0.3323,0.3329,0.3334,0.3337,0.3338,0.335,0.3339,0.3339,0.334,0.334,0.3425,0.3426,0,0,0,0,0,0,0.3278,0.3278,0.3317,0.3319,0.3297,0.3315,0.3318,0.3324,0.3328,0.3329,0.333,0.3329,0.3337,0.3337,0.3338,0.339,0.3339,0.334,0.334,0.3423,0.3425,0.3427,0,0,0,0,0,0,0.3277,0.3281,0.3316,0.3301,0.3306,0.3317,0.3324,0.3325,0.334,0.3335,0.3335,0.3344,0.3336,0.3337,0.3362,0.3388,0.334,0.3341,0.3421,0.3423,0.3426,0.3469,0,0,0,0,0,0,0.3275,0.3281,0.3288,0.3301,0.3307,0.334,0.3325,0.3326,0.3345,0.3344,0.3347,0.3347,0.3336,0.3361,0.3362,0.3388,0.3341,0.3418,0.3422,0.3425,0.3465,0.3473,0.348,0,0,0,0,0,0.3273,0.3284,0.3288,0.3293,0.3316,0.3341,0.3344,0.3348,0.3346,0.3358,0.3364,0.3347,0.3384,0.3363,0.3364,0.3391,0.3417,0.3421,0.3425,0.3462,0.3472,0.3479,0,0,0,0,0,0,0.3264,0.3285,0.329,0.3306,0.3328,0.3341,0.3354,0.3359,0.3373,0.3375,0.3366,0.3367,0.3401,0.3395,0.3371,0.3429,0.34,0.3405,0.3428,0.3437,0.3444,0.3462,0.3342,0,0,0,0,0,0.3267,0.3281,0.3303,0.3318,0.3331,0.3346,0.3358,0.3365,0.3379,0.3385,0.3387,0.3398,0.3419,0.3426,0.3439,0.3466,0.3479,0.3487,0.3495,0.35,0.3519,0.3559,0.3572,0.3441,0.3441,0.3441,0,0,0.3265,0.3282,0.3288,0.3318,0.3334,0.3361,0.3352,0.3378,0.3402,0.3384,0.3414,0.3423,0.3434,0.3466,0.3481,0.3463,0.3546,0.3506,0.351,0.3526,0.3565,0.3578,0.3589,0.3444,0.3443,0.3443,0,0,0.3272,0.3289,0.3304,0.3329,0.3362,0.3377,0.339,0.3413,0.3425,0.3455,0.3457,0.3489,0.3503,0.3525,0.3536,0.3595,0.3586,0.3596,0.3641,0.368,0.3691,0.37,0.3736,0.3748,0.3595,0.3595,0.3595,0,0.327,0.3289,0.3313,0.3342,0.336,0.3389,0.3411,0.3439,0.3467,0.3484,0.3471,0.3532,0.3536,0.3595,0.3617,0.3612,0.3628,0.3601,0.3688,0.3698,0.3707,0.3741,0.3755,0.3598,0.3597,0.3597,0.3597,0,0.3289,0.331,0.3325,0.3369,0.3398,0.3421,0.3464,0.3497,0.3513,0.3535,0.3591,0.3608,0.3644,0.3654,0.3652,0.3727,0.3717,0.3693,0.3662,0.3723,0.3755,0.3768,0.3601,0.36,0.36,0.3599,0,0,0.3264,0.3321,0.3328,0.3346,0.3408,0.3431,0.349,0.354,0.3586,0.3618,0.3669,0.3717,0.3731,0.3748,0.3757,0.3795,0.3873,0.3775,0.3776,0.3804,0.3962,0.3928,0.3939,0.3858,0.3861,0.3863,0.3958,0,0.3265,0.3306,0.3339,0.3382,0.3405,0.3457,0.351,0.3569,0.3617,0.3681,0.3724,0.3779,0.3766,0.3792,0.3831,0.3872,0.391,0.385,0.3906,0.3908,0.3865,0.3954,0.3634,0.369,0.3971,0.3973,0.3974,0,0.3266,0.3295,0.3325,0.3383,0.3399,0.3437,0.3524,0.3577,0.3687,0.3724,0.3796,0.3835,0.3924,0.389,0.3993,0.3954,0.3969,0.3987,0.399,0.3956,0.3899,0.3676,0.3703,0.3996,0.3994,0.3993,0.3991,0,0.3225,0.3282,0.3297,0.3319,0.3399,0.3427,0.348,0.3588,0.365,0.3767,0.383,0.3917,0.3984,0.4022,0.4075,0.4039,0.4177,0.4122,0.4106,0.4104,0.3843,0.3814,0.4189,0.4189,0.4189,0.4188,0.4188,0,0.3206,0.3219,0.3281,0.3294,0.3332,0.3404,0.3471,0.3545,0.3672,0.3752,0.3852,0.3935,0.4023,0.4109,0.4118,0.4173,0.4212,0.4148,0.4139,0.3851,0.3822,0.409,0.4077,0.4192,0.4191,0.4191,0.419,0,0.3154,0.3191,0.3214,0.3287,0.3311,0.3345,0.3462,0.3515,0.3653,0.3768,0.3814,0.3985,0.41,0.4178,0.4264,0.4241,0.428,0.4277,0.3943,0.3895,0.4166,0.4154,0.4275,0.4275,0.4275,0.4275,0.4275,0,0.3125,0.3131,0.3194,0.3207,0.3234,0.3299,0.3341,0.3483,0.3552,0.3783,0.3829,0.4014,0.4105,0.4252,0.4237,0.4268,0.4316,0.3988,0.3866,0.4202,0.4181,0.417,0.4159,0.3531,0.3524,0.3519,0.3515,0,0.3069,0.309,0.3108,0.3141,0.3172,0.321,0.3291,0.3347,0.3517,0.3636,0.379,0.3898,0.4062,0.3973,0.405,0.4009,0.3959,0.3891,0.4326,0.3575,0.3512,0.3488,0.3499,0.347,0.3475,0.3478,0.3481,0.3483,0.3016,0.3014,0.304,0.3056,0.3083,0.3095,0.3096,0.3198,0.3297,0.3424,0.3616,0.3671,0.3743,0.3711,0.3605,0.3526,0.3796,0.3613,0.3622,0.3638,0.3552,0.3494,0.3433,0.3436,0.344,0.3443,0.3446,0,0.2939,0.2944,0.2954,0.2953,0.2922,0.2986,0.3029,0.2999,0.3046,0.3198,0.3305,0.3113,0.3101,0.3156,0.298,0.3004,0.2902,0.2871,0.2698,0.2749,0.2793,0.2655,0.2302,0.2298,0.2294,0.229,0,0,0.2898,0.2865,0.2862,0.2782,0.2779,0.2703,0.2695,0.2681,0.2738,0.2728,0.2746,0.299,0.3113,0.2675,0.2627,0.243,0.2552,0.2331,0.3265,0.3116,0.3153,0.326,0.3113,0,0,0,0,0]},{"header":{"parameterUnit":"m.s-1","parameterCategory":2,"la1":30.2991,"la2":30.254,"lo1":-89.0895,"lo2":-89.0444,"dy":0.0017,"dx":0.0017,"nx":28,"ny":28,"refTime":"2024-05-08T03:00:00:Z","depth":"2","parameterNumber":3,"parameterNumberName":"V-component_of_CURRENTS"},"data":[0,0,0,0,0,0,0,0,0,0,0,0,0,0,0,0,0,0,0,0,0,0,0,0,0,0,0,0,0,0,0,0,0,0,0,0,0,0,0,0,0,0,0,0,0,0,0,0,0,0,0,0,0,0,0,0,0,0,0.0226,0.0225,0,0.0164,0.0163,0.0162,0.012,0.012,0.0119,0.0119,0.0018,0.0016,0.0014,0,0,0,0,0,0,0,0,0,0,0,0,0,0.0237,0.0238,0.0226,0.0225,0.0225,0.0164,0.0163,0.0162,0.012,0.012,0.0119,0.0119,0.0019,0.0016,0.0013,0,0,0,0,0,0,0,0,0,0,0,0,0,0.0209,0.0238,0.0226,0.0197,0.0194,0.0164,0.0163,0.0162,0.012,0.012,0.0119,0.0119,0.002,0.0017,0.0013,-0.0003,0,0,0.0002,0.0,0,0,0,0,0,0,0,0,0.021,0.0208,0.0202,0.0199,0.0195,0.015,0.013,0.0105,0.012,0.0147,0.0119,0.0119,0.006,0.0053,0.0041,-0.0008,-0.0012,0.0001,-0.0001,-0.0002,-0.0004,0,0,0,0,0,0,0,0.0213,0.021,0.02,0.0201,0.0197,0.0163,0.0159,0.0125,0.0104,0.0144,0.0141,0.0136,0.0058,0.0045,0.0038,-0.0014,0.0001,-0.0002,-0.0004,-0.0006,-0.0065,-0.0064,0,0,0,0,0,0,0.0227,0.0213,0.0202,0.0199,0.0203,0.0163,0.0159,0.0164,0.0105,0.0097,0.0137,0.0135,0.0051,0.0043,0.0035,0.0035,-0.0002,-0.0006,-0.0008,-0.0066,-0.0065,-0.0064,0,0,0,0,0,0,0.0227,0.0227,0.0205,0.0204,0.0199,0.0164,0.017,0.0163,0.0156,0.01,0.0091,0.0137,0.0051,0.004,0.0018,0.003,-0.0008,-0.0011,-0.0066,-0.0065,-0.0064,0.0021,0,0,0,0,0,0,0.0228,0.0228,0.0234,0.0206,0.02,0.0201,0.017,0.0162,0.0153,0.015,0.0097,0.0087,0.005,0.0024,0.0015,0.0024,-0.0014,-0.0067,-0.0066,-0.0065,0.0018,0.0025,0.0031,0,0,0,0,0,0.0229,0.0248,0.0235,0.0233,0.0211,0.0201,0.0196,0.0168,0.0154,0.0158,0.0125,0.0089,0.0025,0.0022,0.001,0.0019,-0.0068,-0.0066,-0.0065,0.0015,0.0024,0.0031,0,0,0,0,0,0,0.0255,0.0244,0.023,0.0244,0.0227,0.0195,0.0195,0.0176,0.0153,0.0149,0.0097,0.0085,0.007,0.0034,0.0033,0.0006,-0.0028,-0.0028,0.0037,0.0045,0.0051,0.0073,-0.0017,0,0,0,0,0,0.0265,0.0276,0.0255,0.0264,0.026,0.0229,0.022,0.0203,0.0179,0.0168,0.0132,0.0095,0.0066,0.0049,0.0017,0.0002,-0.0035,-0.0,0.0007,0.0013,0.0023,-0.0021,-0.0017,-0.0059,-0.0059,-0.0059,0,0,0.0275,0.0271,0.0276,0.027,0.0254,0.0263,0.0223,0.022,0.0228,0.0161,0.0159,0.0118,0.0068,0.0055,0.0044,0.0027,0.0007,0.0015,0.0021,0.0027,-0.0019,-0.0015,-0.0012,-0.0058,-0.0059,-0.0059,0,0,0.0308,0.0302,0.0322,0.0319,0.0306,0.029,0.0295,0.027,0.0259,0.0249,0.0206,0.0177,0.013,0.0101,0.0079,0.0105,0.0046,0.009,0.014,0.0097,0.0101,0.0103,0.0067,0.0066,0.0092,0.0093,0.0093,0,0.0318,0.0348,0.0325,0.0345,0.0351,0.0311,0.0336,0.0321,0.0292,0.0288,0.0261,0.02,0.0155,0.0142,0.0148,0.0121,0.0087,0.0114,0.0107,0.0108,0.0109,0.0072,0.0069,0.0097,0.0096,0.0096,0.0095,0,0.037,0.0391,0.0406,0.0422,0.042,0.0439,0.0418,0.0421,0.0398,0.0372,0.0352,0.0289,0.0255,0.0232,0.0195,0.0183,0.0155,0.0123,0.0089,0.0119,0.0077,0.0073,0.0103,0.0101,0.01,0.0099,0,0,0.0404,0.0437,0.0442,0.0468,0.0468,0.0478,0.0496,0.0499,0.0521,0.0468,0.0481,0.0414,0.0371,0.0344,0.029,0.0247,0.0219,0.0192,0.0188,0.0163,0.0128,0.0107,0.01,0.0182,0.0182,0.0182,0.0099,0,0.0453,0.0518,0.0514,0.0572,0.0606,0.0586,0.0612,0.0605,0.0585,0.0587,0.0512,0.0495,0.0417,0.0403,0.0349,0.0256,0.021,0.0245,0.0098,0.0094,0.0076,0.0095,0.0107,0.0035,0.0094,0.0093,0.0093,0,0.0508,0.0548,0.0616,0.0668,0.068,0.0705,0.0744,0.0763,0.0747,0.0729,0.0688,0.0621,0.0559,0.0487,0.034,0.0365,0.0258,0.0175,0.0169,0.0118,0.0064,0.0012,0.0023,0.0084,0.0085,0.0086,0.0086,0,0.0558,0.062,0.0681,0.0699,0.0746,0.0775,0.0802,0.0805,0.0844,0.082,0.0837,0.0731,0.0701,0.0549,0.0372,0.0354,0.0206,0.016,0.004,0.0037,0.0003,-0.0001,0.0055,0.0055,0.0056,0.0056,0.0056,0,0.062,0.067,0.0715,0.0753,0.0843,0.0841,0.0927,0.0939,0.0965,0.1028,0.0918,0.0938,0.0714,0.0598,0.0415,0.0223,0.0236,0.0056,0.0016,0.0034,0.0033,0.0038,0.0038,0.0053,0.0053,0.0054,0.0055,0,0.0666,0.0694,0.0775,0.084,0.0872,0.0935,0.1032,0.1092,0.1104,0.1186,0.1186,0.1093,0.0947,0.0715,0.0475,0.03,0.0102,0.0027,0.0067,0.0034,-0.0052,-0.0048,-0.0114,-0.0115,-0.0116,-0.0117,-0.0118,0,0.0697,0.0743,0.0845,0.0906,0.0941,0.1039,0.1117,0.1164,0.1238,0.1293,0.1342,0.1225,0.118,0.0818,0.0473,0.0154,0.0108,-0.0051,-0.0087,-0.0036,-0.0069,-0.0062,-0.0056,-0.01,-0.0101,-0.0101,-0.0102,0,0.0756,0.0788,0.0856,0.099,0.1081,0.12,0.1312,0.1397,0.1469,0.1539,0.1605,0.1572,0.124,0.0915,0.0467,0.0237,-0.0003,-0.0071,-0.003,-0.0053,-0.0029,-0.0059,-0.0053,-0.0106,-0.0106,-0.0105,-0.0105,-0.0105,0.0798,0.0858,0.0952,0.1078,0.1194,0.1345,0.1459,0.1577,0.1722,0.1841,0.1797,0.1755,0.1382,0.0812,0.0411,-0.0029,-0.0003,-0.0166,-0.0162,-0.0159,-0.0136,-0.0114,-0.0203,-0.0204,-0.0204,-0.0204,-0.0204,0,0.0851,0.0923,0.1036,0.1189,0.1321,0.1383,0.1581,0.1687,0.1867,0.1969,0.2023,0.1662,0.1303,0.0865,0.0226,-0.014,-0.0181,-0.0274,-0.0238,-0.023,-0.0224,-0.0204,-0.0291,-0.0292,-0.0293,-0.0295,0,0,0.0879,0.0988,0.1047,0.1266,0.1382,0.1573,0.1696,0.1851,0.1963,0.2061,0.2042,0.1975,0.1449,0.0971,0.0458,0.009,0.0013,0.0003,0.0112,0.0223,0.0234,-0.0127,-0.0083,0,0,0,0,0]}],[{"header":{"parameterUnit":"m.s-1","parameterCategory":2,"la1":30.2991,"la2":30.254,"lo1":-89.0895,"lo2":-89.0444,"dy":0.0017,"dx":0.0017,"nx":28,"ny":28,"refTime":"2024-05-08T03:00:00:Z","depth":"4","parameterNumber":2,"parameterNumberName":"U-component_of_CURRENTS"},"data":[0,0,0,0,0,0,0,0,0,0,0,0,0,0,0,0,0,0,0,0,0,0,0,0,0,0,0,0,0,0,0,0,0,0,0,0,0,0,0,0,0,0,0,0,0,0,0,0,0,0,0,0,0,0,0,0,0,0,0.2162,0.2163,0,0.2245,0.2246,0.2246,0.2318,0.2319,0.232,0.2321,0.2421,0.2422,0.2424,0,0,0,0,0,0,0,0,0,0,0,0,0,0.206,0.2061,0.2162,0.2163,0.2164,0.2245,0.2246,0.2246,0.2318,0.2319,0.2321,0.2322,0.242,0.2422,0.2424,0,0,0,0,0,0,0,0,0,0,0,0,0,0.2117,0.2061,0.2162,0.2211,0.2217,0.2244,0.2246,0.2247,0.2318,0.232,0.2321,0.2322,0.242,0.2422,0.2425,0.2409,0,0,0.2432,0.2433,0,0,0,0,0,0,0,0,0.2114,0.212,0.2203,0.2208,0.2214,0.2275,0.2246,0.2303,0.2318,0.2277,0.2321,0.2323,0.2374,0.238,0.2389,0.2414,0.2418,0.2432,0.2434,0.2435,0.2436,0,0,0,0,0,0,0,0.211,0.2117,0.2192,0.2204,0.2211,0.2228,0.2238,0.2257,0.2314,0.2281,0.2287,0.2299,0.2377,0.2386,0.2392,0.242,0.2432,0.2435,0.2436,0.2437,0.2582,0.2584,0,0,0,0,0,0,0.2103,0.2114,0.219,0.2195,0.2169,0.2229,0.2239,0.2252,0.2314,0.2325,0.2298,0.2302,0.2381,0.2389,0.2396,0.2507,0.2435,0.2437,0.2439,0.258,0.2583,0.2585,0,0,0,0,0,0,0.21,0.2109,0.2186,0.2158,0.2169,0.2229,0.2242,0.2253,0.2312,0.2327,0.2339,0.2352,0.2383,0.2392,0.2458,0.2507,0.2439,0.2441,0.2577,0.2581,0.2584,0.2649,0,0,0,0,0,0,0.2097,0.2107,0.2136,0.2157,0.2171,0.2233,0.2242,0.2253,0.2315,0.2323,0.2376,0.2384,0.2385,0.2455,0.2461,0.2509,0.2443,0.2574,0.2579,0.2583,0.2644,0.2655,0.2664,0,0,0,0,0,0.2093,0.2117,0.2137,0.2148,0.2201,0.2234,0.2244,0.2288,0.2316,0.2347,0.2389,0.2385,0.2487,0.2458,0.2465,0.2515,0.2572,0.2577,0.2582,0.264,0.2653,0.2663,0,0,0,0,0,0,0.2091,0.2127,0.215,0.2186,0.2224,0.2248,0.2288,0.2315,0.2371,0.2396,0.2409,0.242,0.2497,0.2498,0.2466,0.2572,0.2531,0.2538,0.2573,0.2585,0.2594,0.2603,0.2445,0,0,0,0,0,0.2101,0.2133,0.2166,0.2203,0.2225,0.2266,0.2296,0.2326,0.2367,0.2396,0.2433,0.2476,0.2515,0.2545,0.2575,0.2628,0.2632,0.2668,0.2677,0.2685,0.2699,0.2741,0.2755,0.2602,0.2602,0.2602,0,0,0.2111,0.2138,0.2158,0.2206,0.2242,0.228,0.2289,0.2347,0.2391,0.2396,0.2484,0.2513,0.2537,0.2601,0.2636,0.2615,0.2733,0.2692,0.2699,0.2708,0.2748,0.2763,0.2776,0.2606,0.2605,0.2605,0,0,0.2129,0.2174,0.2202,0.2238,0.23,0.2324,0.2351,0.2404,0.2448,0.2517,0.2539,0.2603,0.2659,0.2688,0.2707,0.2789,0.2782,0.2806,0.2864,0.2905,0.2917,0.2928,0.2954,0.2967,0.2811,0.2811,0.2812,0,0.2147,0.218,0.2218,0.2256,0.2292,0.2349,0.2387,0.2436,0.2508,0.2548,0.2561,0.2674,0.2699,0.2773,0.2809,0.2811,0.2829,0.2813,0.2916,0.2927,0.2937,0.2961,0.2974,0.2815,0.2815,0.2814,0.2814,0,0.2168,0.2218,0.2242,0.2307,0.2352,0.2398,0.2459,0.2526,0.2586,0.2628,0.2731,0.2771,0.2837,0.286,0.2863,0.2956,0.2944,0.292,0.2881,0.2956,0.2977,0.299,0.2821,0.2819,0.2818,0.2817,0,0,0.2146,0.2237,0.2253,0.229,0.2383,0.2415,0.2506,0.2585,0.2655,0.2737,0.282,0.2902,0.294,0.2965,0.2986,0.303,0.312,0.3019,0.3019,0.3036,0.3212,0.301,0.3004,0.3118,0.312,0.3122,0.3197,0,0.2156,0.2223,0.227,0.2349,0.2387,0.2469,0.2544,0.2633,0.2715,0.2812,0.2882,0.2972,0.2974,0.3026,0.3073,0.3116,0.3157,0.3102,0.3145,0.3146,0.295,0.3013,0.3131,0.3206,0.3209,0.3211,0.3213,0,0.2152,0.2201,0.2271,0.2369,0.2396,0.2462,0.2591,0.2667,0.281,0.2877,0.2982,0.304,0.315,0.3128,0.3238,0.3207,0.3224,0.324,0.3243,0.3039,0.2967,0.3117,0.3235,0.3233,0.3232,0.323,0.3229,0,0.2095,0.2197,0.2253,0.2288,0.2411,0.2475,0.2558,0.2699,0.2781,0.294,0.3019,0.3132,0.3219,0.3264,0.3316,0.3293,0.3411,0.3371,0.3201,0.3187,0.3317,0.3304,0.3436,0.3436,0.3436,0.3436,0.3436,0,0.2059,0.211,0.2243,0.2273,0.236,0.2463,0.2578,0.2678,0.2836,0.2928,0.3062,0.3138,0.3263,0.3339,0.3352,0.3316,0.3442,0.3222,0.3195,0.3343,0.3333,0.3326,0.3312,0.3438,0.3438,0.3437,0.3437,0,0.198,0.2065,0.2138,0.2281,0.2336,0.2406,0.2588,0.266,0.2833,0.296,0.3021,0.319,0.3277,0.3362,0.3444,0.3347,0.3338,0.3291,0.346,0.344,0.3078,0.3068,0.3098,0.3091,0.3086,0.3081,0.3077,0,0.1936,0.1969,0.2129,0.218,0.2253,0.238,0.2459,0.2642,0.2717,0.2954,0.2989,0.3156,0.3238,0.3192,0.3292,0.3293,0.3254,0.3219,0.313,0.3074,0.3046,0.3044,0.304,0.3069,0.3067,0.3066,0.3064,0,0.1853,0.1931,0.1991,0.2102,0.2194,0.2277,0.2408,0.2448,0.2646,0.2827,0.2883,0.2928,0.3019,0.306,0.309,0.3083,0.3221,0.3161,0.3171,0.3087,0.3039,0.3016,0.3019,0.3045,0.3048,0.305,0.3051,0,0.1797,0.182,0.1918,0.1994,0.2099,0.2136,0.2223,0.23,0.2398,0.2647,0.2657,0.2826,0.2986,0.2953,0.2979,0.296,0.2906,0.279,0.2818,0.284,0.2719,0.2618,0.248,0,0,0,0,0,0.173,0.1739,0.18,0.1865,0.1959,0.2024,0.2165,0.2252,0.2441,0.2411,0.2529,0.2593,0.2636,0.2724,0.2651,0.287,0.2922,0.2772,0.2804,0.294,0.2962,0.2842,0,0,0,0,0,0,0.1683,0.1737,0.1751,0.174,0.1761,0.1844,0.1925,0.2053,0.2046,0.2247,0.2284,0.2433,0.2516,0.2653,0.2602,0.2628,0.2591,0.2881,0.2874,0.2928,0.2947,0.2965,0.2849,0,0,0,0,0]},{"header":{"parameterUnit":"m.s-1","parameterCategory":2,"la1":30.2991,"la2":30.254,"lo1":-89.0895,"lo2":-89.0444,"dy":0.0017,"dx":0.0017,"nx":28,"ny":28,"refTime":"2024-05-08T03:00:00:Z","depth":"4","parameterNumber":3,"parameterNumberName":"V-component_of_CURRENTS"},"data":[0,0,0,0,0,0,0,0,0,0,0,0,0,0,0,0,0,0,0,0,0,0,0,0,0,0,0,0,0,0,0,0,0,0,0,0,0,0,0,0,0,0,0,0,0,0,0,0,0,0,0,0,0,0,0,0,0,0,0.0112,0.0112,0,0.0075,0.0075,0.0074,0.0046,0.0046,0.0045,0.0045,-0.0025,-0.0027,-0.0028,0,0,0,0,0,0,0,0,0,0,0,0,0,0.0114,0.0114,0.0112,0.0112,0.0112,0.0075,0.0075,0.0074,0.0046,0.0046,0.0045,0.0045,-0.0025,-0.0027,-0.0029,0,0,0,0,0,0,0,0,0,0,0,0,0,0.0098,0.0115,0.0112,0.0093,0.0091,0.0075,0.0075,0.0074,0.0046,0.0046,0.0045,0.0045,-0.0024,-0.0026,-0.0029,-0.0038,0,0,-0.0037,-0.0038,0,0,0,0,0,0,0,0,0.0099,0.0098,0.0097,0.0095,0.0092,0.0065,0.0049,0.0035,0.0046,0.0063,0.0045,0.0045,0.0002,-0.0002,-0.0009,-0.0041,-0.0044,-0.0037,-0.0038,-0.0039,-0.004,0,0,0,0,0,0,0,0.0101,0.01,0.0097,0.0096,0.0094,0.0071,0.0069,0.0046,0.0034,0.0061,0.0059,0.0056,0.0001,-0.0006,-0.0011,-0.0045,-0.0037,-0.0039,-0.004,-0.0041,-0.0079,-0.0079,0,0,0,0,0,0,0.0109,0.0101,0.0098,0.0096,0.0096,0.0072,0.0069,0.0074,0.0035,0.0029,0.0056,0.0055,-0.0002,-0.0008,-0.0013,-0.0008,-0.0039,-0.0042,-0.0043,-0.008,-0.0079,-0.0079,0,0,0,0,0,0,0.0109,0.0109,0.01,0.0097,0.0095,0.0073,0.0078,0.0073,0.007,0.0031,0.0025,0.0058,-0.0002,-0.001,-0.0023,-0.0011,-0.0043,-0.0045,-0.008,-0.0079,-0.0079,-0.0008,0,0,0,0,0,0,0.011,0.011,0.0116,0.0098,0.0095,0.01,0.0078,0.0073,0.0069,0.0066,0.0031,0.0024,-0.0003,-0.0019,-0.0026,-0.0015,-0.0047,-0.0081,-0.008,-0.0079,-0.0011,-0.0005,0.0,0,0,0,0,0,0.011,0.0125,0.0117,0.0116,0.0105,0.0101,0.0098,0.008,0.0069,0.0074,0.0051,0.0025,-0.0018,-0.0021,-0.0029,-0.0018,-0.0081,-0.008,-0.0079,-0.0014,-0.0006,-0.0,0,0,0,0,0,0,0.0129,0.0123,0.0114,0.0126,0.0117,0.0097,0.0099,0.0086,0.0072,0.0069,0.0032,0.0024,0.0016,-0.0011,-0.0013,-0.0027,-0.0055,-0.0055,-0.0002,0.0004,0.001,0.0026,-0.0049,0,0,0,0,0,0.0136,0.0146,0.0133,0.0142,0.0141,0.0121,0.0116,0.0106,0.009,0.0083,0.0059,0.0033,0.0014,0.0002,-0.002,-0.0027,-0.0061,-0.0026,-0.0021,-0.0016,-0.0008,-0.0048,-0.0046,-0.0075,-0.0075,-0.0075,0,0,0.0144,0.0143,0.0148,0.0147,0.0138,0.0148,0.0118,0.0119,0.0128,0.0078,0.0082,0.0052,0.0016,0.001,0.0004,-0.001,-0.0025,-0.0014,-0.001,-0.0005,-0.0047,-0.0044,-0.0042,-0.0074,-0.0074,-0.0074,0,0,0.017,0.0167,0.0184,0.0185,0.0179,0.017,0.0174,0.0159,0.0154,0.0151,0.0119,0.0099,0.0069,0.0049,0.0034,0.0056,0.0006,0.0046,0.0087,0.0048,0.005,0.0052,0.0013,0.0011,0.0048,0.0049,0.0049,0,0.0178,0.0202,0.0187,0.0206,0.0213,0.0185,0.0208,0.02,0.0183,0.0182,0.0162,0.0122,0.0089,0.0083,0.009,0.007,0.0037,0.0066,0.0056,0.0056,0.0057,0.0017,0.0013,0.0052,0.0052,0.0051,0.0051,0,0.0217,0.0237,0.025,0.0266,0.027,0.0286,0.0276,0.0282,0.0268,0.0251,0.024,0.0195,0.0173,0.0156,0.0129,0.012,0.0092,0.0068,0.0041,0.0064,0.002,0.0015,0.0057,0.0056,0.0055,0.0054,0,0,0.0237,0.0272,0.0277,0.0301,0.0307,0.0319,0.0339,0.0347,0.0365,0.0331,0.0343,0.0299,0.0266,0.0247,0.0207,0.017,0.014,0.0125,0.0121,0.0091,0.0051,0.0034,0.0027,0.0111,0.011,0.011,0.002,0,0.0273,0.0327,0.0331,0.0383,0.0411,0.0405,0.0431,0.0431,0.0418,0.0423,0.0369,0.0361,0.0303,0.0296,0.025,0.0171,0.013,0.0166,0.0029,0.0025,0.0011,0.0021,0.0108,0.0016,0.0015,0.0014,0.0013,0,0.0311,0.0346,0.0404,0.0456,0.0468,0.0495,0.0533,0.0553,0.0545,0.0535,0.0507,0.0458,0.041,0.0356,0.0229,0.0254,0.0162,0.0091,0.0085,0.0043,-0.0001,-0.0014,0.0003,0.0004,0.0005,0.0006,0.0006,0,0.0339,0.0398,0.0451,0.0469,0.0518,0.0549,0.0578,0.0586,0.0619,0.0608,0.062,0.054,0.0515,0.039,0.0241,0.0234,0.0091,0.0061,-0.0042,-0.0044,-0.0034,-0.0035,-0.0031,-0.0031,-0.0031,-0.0031,-0.003,0,0.0377,0.0422,0.0474,0.0507,0.0584,0.0597,0.067,0.0687,0.0713,0.0757,0.0685,0.069,0.0521,0.0417,0.0268,0.0101,0.0109,-0.0031,-0.0066,-0.0003,0.0001,-0.0038,-0.0038,-0.0034,-0.0033,-0.0033,-0.0032,0,0.0397,0.043,0.05,0.0569,0.0602,0.0657,0.075,0.0797,0.0816,0.0873,0.0876,0.08,0.0666,0.0485,0.0279,0.015,-0.0017,-0.0082,0.0007,-0.0023,-0.0135,-0.013,-0.02,-0.0202,-0.0203,-0.0204,-0.0205,0,0.0412,0.0449,0.0549,0.0601,0.0639,0.0728,0.0795,0.0849,0.0902,0.094,0.0968,0.0866,0.0788,0.05,0.0291,0.0007,-0.004,-0.0132,-0.0142,-0.0124,-0.0152,-0.0145,-0.0139,-0.0206,-0.0207,-0.0207,-0.0207,0,0.0438,0.0472,0.0531,0.0643,0.0726,0.0826,0.0922,0.0972,0.1036,0.1055,0.1047,0.0904,0.0753,0.0511,0.0289,0.0082,-0.0075,-0.0145,-0.0144,-0.0154,-0.0132,-0.0157,-0.0149,-0.0211,-0.021,-0.021,-0.021,0,0.0455,0.0497,0.0577,0.0677,0.0788,0.0894,0.0946,0.1015,0.1075,0.1113,0.1104,0.0948,0.0855,0.0549,0.0346,0.014,0.0079,-0.0,-0.0008,-0.0007,0.0067,0.0124,0.0099,0,0,0,0,0,0.0469,0.0518,0.0606,0.0719,0.083,0.0902,0.102,0.106,0.1126,0.1132,0.1124,0.0985,0.07,0.0578,0.0369,0.0296,0.0022,0.0041,-0.0078,-0.0232,-0.0227,-0.0177,0,0,0,0,0,0,0.0475,0.0554,0.06,0.074,0.0822,0.0953,0.1033,0.1076,0.1082,0.1111,0.0966,0.0915,0.0635,0.082,0.036,0.0299,0.0189,-0.0085,-0.009,-0.0234,-0.023,-0.0227,-0.0173,0,0,0,0,0]}]]